Wind_Speed
19 28 29 24 20 19 18 17 18 19 19 19 21 19 19 19 18 18 20 16 18 16 16 15 15 16 18 19 19 17 16 16 17 16 16 19 16 15 14 14 11 12 12
20 27 31 27 22 19 18 16 17 19 20 21 23 21 21 20 18 19 19 18 20 17 18 16 15 15 18 17 16 15 15 15 16 16 15 14 15 14 15 17 15 15 13
21 26 28 27 24 20 18 17 17 19 23 23 24 24 23 21 19 19 20 21 20 18 18 17 16 14 15 14 14 13 13 15 18 18 15 11 11 12 12 15 17 14 14
23 25 26 28 24 21 20 19 20 21 25 25 26 26 24 22 20 20 21 22 20 19 18 17 17 15 12 12 13 14 15 17 16 13 12 11 11 11 11 11 12 14 16
25 24 24 28 25 22 21 19 20 23 24 26 26 26 26 24 22 22 23 21 21 19 16 16 16 15 12 12 13 14 15 18 16 12 11 11 11 11 10 10 10 9 11
20 21 25 26 24 22 23 20 18 22 25 25 26 26 26 24 23 22 25 21 20 18 18 16 15 14 13 13 13 13 14 15 13 10 11 11 11 11 11 11 10 10 10
19 21 25 26 24 23 23 22 20 19 23 24 25 26 27 24 22 23 22 21 20 18 17 18 16 14 12 12 11 12 12 13 9 9 9 10 10 10 10 10 10 9 9
20 22 21 24 24 23 23 23 21 18 22 25 26 27 25 23 22 23 23 21 19 17 16 16 15 13 11 10 9 9 10 11 7 8 8 8 9 8 8 9 9 8 8
20 18 21 21 21 24 24 23 22 20 20 24 25 26 24 21 21 21 23 21 18 16 15 15 13 12 10 9 8 7 8 9 6 5 5 6 7 7 7 7 7 7 8
10 18 19 22 20 21 21 23 21 21 21 23 24 22 21 19 19 20 21 19 17 15 14 13 11 10 8 7 6 5 6 7 3 4 4 2 5 5 5 5 5 5 6
11 13 7 21 22 24 22 21 21 21 22 21 20 19 19 18 18 18 16 18 16 15 13 11 9 8 6 5 4 3 3 1 2 2 3 2 3 3 2 3 3 3 4
24 20 31 23 26 27 25 22 19 18 20 20 18 18 16 17 16 16 15 16 15 14 12 10 9 7 5 4 2 3 2 3 2 2 3 4 3 3 1 2 2 2 3
25 27 41 28 32 31 28 27 23 21 20 21 20 19 18 19 17 14 13 13 11 12 9 8 7 6 6 5 5 4 3 4 3 3 4 4 4 3 4 4 4 4 5
37 32 30 39 34 32 28 29 25 23 21 23 24 22 20 18 18 15 14 13 11 11 9 8 8 7 6 6 6 5 4 4 3 3 5 4 3 4 4 5 7 9 10
29 34 27 30 25 26 32 24 25 23 23 21 21 19 19 16 17 15 14 13 11 10 10 9 8 7 7 7 7 6 5 5 5 4 4 6 5 5 6 7 9 11 12
23 23 8 26 21 19 29 26 26 23 20 22 20 20 18 17 16 15 14 12 11 9 9 8 8 7 7 7 7 7 6 5 5 5 5 6 5 7 7 9 9 10 11
22 22 16 13 23 18 22 24 25 25 23 21 19 19 17 16 16 15 13 11 10 9 8 8 7 7 7 7 7 7 7 7 6 6 7 5 6 8 10 11 13 15 15
11 15 36 18 19 17 16 20 20 20 21 20 19 20 19 16 16 13 11 11 10 9 9 9 8 8 8 8 8 8 7 7 7 8 6 5 8 7 10 13 13 19 18
11 16 21 26 25 22 18 15 14 15 17 16 16 17 18 17 16 14 12 10 10 9 9 9 9 9 9 9 9 9 8 4 4 8 8 7 7 8 10 11 13 15 13
14 16 31 26 25 23 22 17 13 14 15 16 16 16 18 15 15 14 11 10 11 11 10 10 11 11 10 10 10 10 8 7 11 9 7 6 6 7 7 10 10 10 13
23 30 28 28 22 24 25 23 18 15 15 18 16 15 16 14 13 12 11 9 10 10 9 7 10 10 11 11 6 8 10 13 13 5 4 4 4 5 7 8 8 8 10
26 29 31 31 22 19 19 20 16 16 17 15 18 18 15 14 14 13 13 14 15 16 13 8 9 10 13 11 8 5 3 10 8 4 3 3 5 8 7 7 7 7 6
23 29 29 28 16 13 16 15 11 10 7 15 16 16 15 13 12 13 12 12 13 13 16 16 19 12 11 6 10 5 2 2 4 2 3 4 6 7 7 6 7 8 5
15 13 20 29 20 21 13 14 15 8 3 8 12 13 10 10 8 13 13 14 13 12 10 12 13 8 15 9 9 8 6 4 1 2 3 7 6 8 7 7 6 7 6
7 12 7 12 16 19 17 10 7 4 14 13 13 14 11 8 21 18 15 17 14 18 16 14 15 11 18 22 15 7 6 6 11 7 4 5 6 7 7 7 9 8 7
10 7 11 11 18 15 12 14 18 19 21 21 22 22 24 23 19 15 18 23 21 19 17 18 22 19 22 24 20 15 12 5 9 7 5 6 6 8 10 9 8 7 7
Wind_Direction
158 160 171 171 168 167 168 169 171 175 170 166 157 154 150 148 142 139 134 126 141 113 116 115 107 108 99 93 92 95 98 99 96 100 97 94 85 73 68 71 72 68 68
160 160 173 172 171 171 170 172 174 176 170 170 160 156 154 149 142 139 135 130 124 118 114 121 115 110 101 96 95 95 97 99 99 91 82 81 84 77 73 83 78 67 68
166 163 171 174 174 172 173 171 172 170 169 172 165 161 158 150 144 140 139 136 131 121 123 120 120 113 103 102 100 102 102 102 97 88 85 80 77 77 79 79 68 64 66
162 166 172 175 175 173 171 170 171 169 171 174 170 164 158 150 146 143 143 141 136 133 128 128 128 126 113 105 102 103 103 100 88 77 85 81 78 74 71 75 67 63 63
154 167 178 175 175 172 172 169 169 171 173 174 172 167 157 150 148 146 148 143 143 138 137 137 133 128 117 109 105 103 100 93 83 82 85 80 79 71 70 69 63 66 69
149 170 180 178 176 172 171 168 165 171 177 175 173 166 156 151 148 148 147 146 145 146 139 131 133 131 121 114 109 104 100 90 82 87 84 79 80 75 71 70 66 68 62
168 176 177 181 180 173 173 172 166 166 175 177 174 162 152 149 148 148 153 150 146 145 142 142 147 138 127 122 116 109 104 91 95 91 88 84 82 78 74 72 68 65 66
179 182 172 183 181 176 170 176 169 159 172 171 167 158 155 150 149 152 153 153 153 146 145 146 146 143 139 131 125 118 110 103 87 92 94 94 90 83 78 74 71 68 65
184 179 176 179 183 177 177 176 174 166 160 165 160 153 152 154 152 153 156 158 156 150 150 147 145 144 144 145 138 127 116 111 99 102 101 98 96 88 80 73 67 62 56
192 179 177 180 180 178 180 176 174 173 159 157 152 149 150 156 154 156 158 161 159 158 156 153 152 151 149 146 143 134 121 107 103 116 111 131 108 96 85 79 70 59 49
298 354 270 184 182 180 179 169 172 173 169 157 151 152 150 156 155 156 159 161 164 168 165 163 162 162 163 168 171 163 146 128 144 161 160 208 143 122 76 60 50 36 30
283 271 297 206 189 183 173 165 161 165 165 167 165 160 157 161 163 160 161 164 171 173 173 175 176 173 162 191 227 198 202 205 202 190 203 235 194 171 247 347 350 342 341
263 264 243 237 193 185 170 168 161 165 168 171 172 172 168 162 161 156 164 166 170 174 180 190 193 191 208 204 204 212 215 230 228 217 222 231 215 222 218 254 284 296 301
192 236 251 262 197 184 169 173 163 166 168 168 168 171 168 165 169 169 168 172 177 187 191 195 206 205 209 219 221 226 222 221 237 224 236 266 237 238 250 255 273 288 291
184 215 217 203 199 167 169 176 163 169 165 166 170 172 171 170 171 170 171 176 184 189 197 204 215 216 221 223 225 231 232 237 240 242 257 269 274 272 279 286 290 283 282
177 190 192 166 182 188 169 174 167 166 170 162 168 175 173 172 170 173 173 181 186 192 203 211 218 222 224 221 230 234 241 240 250 252 261 272 271 284 292 297 306 302 293
172 152 196 141 186 183 186 176 169 171 171 168 174 174 172 173 174 173 175 181 189 199 202 211 217 227 226 225 233 233 233 242 249 255 244 258 290 296 291 307 305 298 291
183 169 169 194 205 185 187 189 175 174 175 176 177 177 177 174 173 175 181 190 195 196 202 207 209 218 227 229 234 228 230 235 242 259 266 275 272 284 311 311 310 303 293
155 167 172 181 195 176 179 186 179 177 179 183 183 183 185 183 181 179 188 197 199 204 208 216 218 223 225 227 231 232 231 255 273 257 257 267 279 305 302 304 309 312 316
171 164 162 187 192 176 170 179 170 171 179 184 181 186 184 187 191 187 194 198 201 204 212 220 225 224 232 235 232 229 227 250 248 252 278 310 303 301 305 313 320 320 319
173 174 185 193 193 191 181 176 164 175 181 175 175 176 178 186 188 190 197 195 208 215 217 248 240 242 230 237 231 234 241 240 233 266 289 274 288 290 300 306 317 317 323
189 173 187 191 203 198 191 188 191 175 187 182 180 181 185 188 190 192 209 210 213 219 218 242 277 280 247 232 229 258 234 241 165 156 235 274 288 299 294 307 317 319 336
183 180 192 200 191 197 193 180 177 212 216 207 201 199 190 186 184 198 209 214 218 218 231 234 239 253 278 237 221 235 225 183 4 321 295 243 295 281 278 286 293 296 300
158 160 195 215 218 200 212 210 187 159 127 231 226 213 210 220 234 236 222 204 212 201 200 200 224 240 255 192 154 167 136 101 112 284 287 297 261 262 269 274 285 297 305
140 218 236 191 224 239 254 297 326 275 231 246 242 247 247 256 237 238 239 230 219 210 199 211 212 232 227 219 193 198 241 238 225 216 295 245 246 265 269 274 282 279 276
178 220 219 225 219 243 261 268 248 243 238 242 239 233 240 236 231 234 248 243 238 227 205 220 233 233 227 209 210 226 215 191 200 202 219 256 266 286 266 264 269 280 273
Height
747 753 760 764 768 770 772 774 776 779 782 785 788 791 793 795 797 798 801 803 806 807 808 811 811 812 813 813 814 815 815 815 816 816 817 817 817 817 818 818 820 819 818
748 753 758 762 767 770 772 775 776 779 783 785 788 791 795 796 798 800 802 804 807 809 811 814 814 815 816 816 817 817 817 818 819 819 820 820 820 820 820 820 821 821 821
749 755 759 762 766 770 773 775 777 779 783 786 788 791 795 798 800 802 804 806 808 811 813 815 818 818 818 818 819 819 820 820 821 822 822 824 824 823 823 823 823 824 823
750 757 760 762 766 770 773 775 777 780 783 786 789 791 795 798 801 804 806 807 809 812 815 817 818 820 821 821 821 821 822 823 823 823 826 827 827 826 826 826 826 826 826
750 759 763 764 766 770 774 776 778 780 783 787 790 792 795 798 802 804 807 809 811 813 816 817 819 821 822 823 823 824 824 825 826 827 828 828 829 828 828 828 829 828 828
752 759 764 767 768 771 774 778 780 782 784 788 790 793 796 799 803 806 808 811 813 814 816 818 820 821 822 824 825 826 827 827 827 829 830 830 830 830 829 829 829 830 830
755 759 764 768 770 771 776 779 781 783 786 789 792 795 797 801 804 807 810 813 815 816 817 819 821 822 824 825 826 827 828 828 830 831 831 831 831 831 831 831 831 831 831
756 759 764 769 771 773 776 779 782 784 786 789 793 796 799 803 805 808 812 814 816 817 819 820 822 823 824 826 827 828 828 829 832 832 832 832 831 832 832 832 832 832 832
758 759 764 769 773 775 777 780 783 785 788 791 794 797 800 804 807 809 812 815 817 818 820 822 823 824 826 827 828 829 829 830 832 833 833 833 833 833 833 834 834 834 833
755 760 764 769 774 776 779 780 783 786 789 792 794 798 802 806 809 812 814 816 819 820 822 823 824 826 827 828 829 830 830 831 833 834 834 834 834 834 834 834 834 834 834
748 748 766 770 772 775 779 780 784 787 790 793 796 799 803 808 811 813 816 817 820 821 823 824 825 826 827 828 829 830 831 832 833 833 833 833 834 835 835 835 835 835 835
736 758 764 769 770 772 776 779 784 788 790 794 798 802 805 809 812 815 816 818 820 822 824 824 825 826 828 829 829 830 830 832 832 833 833 833 833 834 835 836 835 835 835
744 752 768 766 765 766 770 776 781 786 790 793 797 802 804 807 811 814 817 819 821 822 824 825 826 826 828 829 830 830 831 831 832 832 832 832 833 834 834 835 835 834 834
750 755 750 760 759 760 765 771 776 782 786 790 795 799 803 805 809 812 815 818 820 822 824 825 826 826 827 828 828 829 830 830 831 832 831 832 832 833 834 834 835 835 835
736 746 739 752 756 755 761 768 773 779 784 789 793 798 801 805 807 810 813 816 819 821 822 824 825 825 826 827 828 828 829 829 830 831 832 831 832 833 833 834 834 834 833
726 733 740 747 757 759 760 766 772 777 782 787 792 798 800 804 806 809 811 815 817 819 821 822 824 825 825 826 827 827 828 828 829 829 830 830 830 832 832 832 832 832 831
729 726 739 748 761 762 766 768 770 774 781 785 791 796 799 802 805 807 809 813 816 818 819 821 822 824 824 824 825 825 826 826 827 827 827 829 829 829 829 829 830 830 828
727 727 731 750 763 761 764 770 770 774 779 784 789 792 796 800 803 806 809 811 814 816 818 819 820 822 823 823 824 824 825 825 825 825 826 827 828 828 827 827 826 826 825
728 731 735 748 760 758 764 769 770 773 778 783 788 792 795 798 800 802 806 809 811 814 816 818 819 820 820 820 821 821 822 823 823 824 823 824 825 826 827 826 824 823 822
730 733 739 747 755 759 761 770 770 772 778 781 786 789 793 796 799 800 804 806 809 812 813 815 816 817 818 818 819 819 819 821 822 821 821 822 823 824 826 825 823 822 821
732 737 740 749 753 755 759 763 767 772 776 778 783 787 790 794 796 799 803 804 807 809 810 812 814 815 816 817 817 818 818 817 818 818 820 821 822 823 823 824 822 821 820
730 736 740 747 754 755 758 763 768 771 776 780 782 785 789 790 793 796 799 801 803 805 806 809 813 813 813 814 816 816 815 814 814 818 820 820 821 822 822 821 822 822 818
728 735 741 744 752 754 761 762 768 773 774 780 781 784 786 788 790 794 796 798 800 802 803 802 809 810 813 811 814 815 814 812 815 814 817 818 818 819 820 819 819 819 817
727 735 742 743 750 757 763 767 771 772 773 778 780 785 786 789 789 796 795 794 796 798 801 802 804 806 810 810 809 810 811 813 816 816 816 816 815 816 816 817 816 817 816
731 737 741 748 752 752 758 763 761 769 774 778 781 784 781 778 792 791 793 797 794 792 792 799 800 800 803 807 806 809 811 812 814 815 813 813 813 814 813 815 816 815 814
738 741 743 746 748 752 756 761 766 769 774 776 779 779 782 785 784 785 788 790 791 789 784 791 796 797 800 802 803 805 806 808 807 807 809 809 810 810 812 813 814 814 812